Location: Karlsruhe
(49.0131°N, 8.3874°E)
Time: 08:57:48
(UTC+01:00)

ISS - Pass Details

Date: 22 March 2017
Orbit: 401 x 407 km, 51.6° (Epoch: 25 November)

Event Time Altitude Azimuth Distance (km) Brightness Sun altitude
Exits shadow 03:59:48 18° 129° (SE) 1,111 -1.4 -23.5°
Drops below altitude 10° 04:00:50 10° 125° (SE) 1,516 -0.7 -23.3°
Enters shadow 05:02:28 -57° 311° (NW) 11,211 3.4 -14.1°
